| time (UTC) | temp C | wind direction | speed KPH | gust KPH | rain 1hr cm | rain 24hr cm | rain mn cm | humidity % | barometer mb |
| 20260506080707 | 13 | 333 | 8.0 | 9.7 | 0.00 | 0.00 | 0.00 | 77 | 1007.7 |
| 20260506080204 | 13 | 263 | 9.7 | 16.1 | 0.00 | 0.00 | 0.00 | 77 | 1007.6 |
| 20260506073148 | 13 | 261 | 3.2 | 9.7 | 0.00 | 0.00 | 0.00 | 78 | 1008.0 |
| 20260506072644 | 13 | 248 | 8.0 | 12.9 | 0.00 | 0.00 | 0.00 | 79 | 1007.9 |
| 20260506072142 | 13 | 269 | 6.4 | 9.7 | 0.00 | 0.00 | 0.00 | 80 | 1007.6 |
| 20260506071639 | 13 | 330 | 4.8 | 9.7 | 0.00 | 0.00 | 0.00 | 80 | 1007.6 |
| 20260506071137 | 13 | 238 | 3.2 | 11.3 | 0.00 | 0.00 | 0.00 | 79 | 1007.6 |
| 20260506070634 | 13 | 284 | 3.2 | 4.8 | 0.00 | 0.00 | 0.00 | 79 | 1007.4 |
| 20260506070131 | 13 | 318 | 3.2 | 11.3 | 0.00 | 0.00 | 0.00 | 79 | 1007.2 |
| 20260506062108 | 14 | 344 | 6.4 | 11.3 | 0.00 | 0.00 | 0.00 | 79 | 1007.0 |
| 20260506061604 | 14 | 348 | 4.8 | 9.7 | 0.00 | 0.00 | 0.00 | 80 | 1007.3 |
| 20260506061102 | 15 | 103 | 3.2 | 6.4 | 0.00 | 0.00 | 0.00 | 80 | 1007.4 |
| 20260506060600 | 15 | 265 | 3.2 | 6.4 | 0.00 | 0.00 | 0.00 | 80 | 1007.2 |
| 20260506051028 | 15 | 17 | 4.8 | 6.4 | 0.00 | 0.00 | 0.00 | 78 | 1007.5 |
| 20260506050526 | 15 | 343 | 4.8 | 17.7 | 0.00 | 0.00 | 0.00 | 78 | 1007.5 |
| 20260506045017 | 16 | 12 | 8.0 | 16.1 | 0.00 | 0.00 | 0.00 | 78 | 1007.3 |
| 20260506044515 | 16 | 308 | 4.8 | 9.7 | 0.00 | 0.00 | 0.00 | 78 | 1007.3 |
| 20260506044012 | 16 | 338 | 4.8 | 17.7 | 0.00 | 0.00 | 0.00 | 78 | 1007.5 |
| 20260506043508 | 16 | 311 | 9.7 | 14.5 | 0.00 | 0.00 | 0.00 | 78 | 1007.3 |
| 20260506043007 | 16 | 1 | 9.7 | 14.5 | 0.00 | 0.00 | 0.00 | 78 | 1007.3 |
| 20260506042506 | 16 | 318 | 8.0 | 11.3 | 0.00 | 0.00 | 0.00 | 78 | 1007.2 |
| 20260506042003 | 16 | 328 | 9.7 | 12.9 | 0.00 | 0.00 | 0.00 | 77 | 1007.0 |
| 20260506041501 | 16 | 279 | 8.0 | 14.5 | 0.00 | 0.00 | 0.00 | 77 | 1007.1 |
| 20260506040958 | 16 | 276 | 6.4 | 12.9 | 0.00 | 0.00 | 0.00 | 77 | 1007.3 |
| 20260506040456 | 16 | 302 | 8.0 | 12.9 | 0.00 | 0.00 | 0.00 | 76 | 1007.2 |
| 20260506035951 | 16 | 342 | 4.8 | 14.5 | 0.00 | 0.00 | 0.00 | 76 | 1007.1 |
| 20260506035449 | 16 | 357 | 6.4 | 12.9 | 0.00 | 0.00 | 0.00 | 76 | 1007.2 |
| 20260506034945 | 16 | 21 | 8.0 | 12.9 | 0.00 | 0.00 | 0.00 | 75 | 1007.2 |
| 20260506034443 | 17 | 282 | 8.0 | 12.9 | 0.00 | 0.00 | 0.00 | 75 | 1007.1 |
| 20260506033940 | 17 | 348 | 9.7 | 17.7 | 0.00 | 0.00 | 0.00 | 75 | 1007.0 |
| 20260506033437 | 17 | 286 | 8.0 | 14.5 | 0.00 | 0.00 | 0.00 | 75 | 1006.8 |
| 20260506032934 | 17 | 308 | 3.2 | 14.5 | 0.00 | 0.00 | 0.00 | 75 | 1006.8 |
| 20260506032431 | 17 | 300 | 8.0 | 12.9 | 0.00 | 0.00 | 0.00 | 75 | 1006.6 |
| 20260506031927 | 17 | 309 | 6.4 | 12.9 | 0.00 | 0.00 | 0.00 | 75 | 1006.5 |
| 20260506031425 | 17 | 291 | 6.4 | 17.7 | 0.00 | 0.00 | 0.00 | 75 | 1006.1 |
| 20260506030922 | 17 | 255 | 3.2 | 6.4 | 0.00 | 0.00 | 0.00 | 75 | 1006.1 |
| 20260506030420 | 17 | 291 | 9.7 | 14.5 | 0.00 | 0.00 | 0.00 | 75 | 1006.1 |
| 20260506025917 | 17 | 286 | 9.7 | 16.1 | 0.00 | 0.00 | 0.00 | 75 | 1005.8 |
| 20260506025414 | 17 | 339 | 6.4 | 11.3 | 0.00 | 0.00 | 0.00 | 75 | 1005.7 |
| 20260506024911 | 17 | 356 | 9.7 | 12.9 | 0.00 | 0.00 | 0.00 | 75 | 1006.0 |
| 20260506024408 | 18 | 319 | 6.4 | 11.3 | 0.00 | 0.00 | 0.00 | 75 | 1005.5 |
| 20260506023904 | 18 | 309 | 6.4 | 12.9 | 0.00 | 0.00 | 0.00 | 75 | 1005.8 |
| 20260506023401 | 18 | 282 | 8.0 | 9.7 | 0.00 | 0.00 | 0.00 | 76 | 1005.4 |
| 20260506022857 | 18 | 350 | 6.4 | 12.9 | 0.00 | 0.00 | 0.00 | 75 | 1005.3 |
| 20260506022355 | 18 | 296 | 6.4 | 11.3 | 0.00 | 0.00 | 0.00 | 75 | 1005.3 |
| 20260506021853 | 18 | 232 | 3.2 | 9.7 | 0.00 | 0.00 | 0.00 | 75 | 1005.5 |
| 20260506021349 | 18 | 292 | 6.4 | 9.7 | 0.00 | 0.00 | 0.00 | 75 | 1005.4 |
| 20260506020846 | 18 | 279 | 6.4 | 6.4 | 0.00 | 0.00 | 0.00 | 74 | 1005.4 |
| 20260506020344 | 18 | 244 | 4.8 | 6.4 | 0.00 | 0.00 | 0.00 | 74 | 1005.0 |
| 20260506015841 | 18 | 271 | 6.4 | 9.7 | 0.00 | 0.00 | 0.00 | 73 | 1005.1 |
| 20260506015339 | 18 | 291 | 3.2 | 6.4 | 0.00 | 0.00 | 0.00 | 73 | 1005.0 |
| 20260506014835 | 18 | 242 | 6.4 | 11.3 | 0.00 | 0.00 | 0.00 | 73 | 1004.8 |
| 20260506014332 | 18 | 259 | 6.4 | 9.7 | 0.00 | 0.00 | 0.00 | 72 | 1004.5 |
| 20260506013829 | 18 | 293 | 9.7 | 12.9 | 0.00 | 0.00 | 0.00 | 72 | 1004.5 |
| 20260506013326 | 18 | 33 | 6.4 | 9.7 | 0.00 | 0.00 | 0.00 | 73 | 1004.1 |
| 20260506012822 | 19 | 245 | 3.2 | 6.4 | 0.00 | 0.00 | 0.00 | 73 | 1004.0 |
| 20260506012320 | 19 | 261 | 8.0 | 11.3 | 0.00 | 0.00 | 0.00 | 71 | 1004.0 |
| 20260506011817 | 19 | 261 | 8.0 | 11.3 | 0.00 | 0.00 | 0.00 | 71 | 1004.0 |
| 20260506011313 | 20 | 291 | 9.7 | 14.5 | 0.00 | 0.00 | 0.00 | 71 | 1003.6 |
| 20260506010811 | 20 | 291 | 9.7 | 14.5 | 0.00 | 0.00 | 0.00 | 71 | 1003.6 |
| 20260506010309 | 20 | 291 | 9.7 | 14.5 | 0.00 | 0.00 | 0.00 | 71 | 1003.6 |
| 20260506005806 | 20 | 283 | 6.4 | 17.7 | 0.00 | 0.00 | 0.00 | 70 | 1003.5 |
| 20260506005305 | 20 | 290 | 9.7 | 11.3 | 0.00 | 0.00 | 0.00 | 70 | 1003.2 |
| 20260506004758 | 21 | 3 | 8.0 | 12.9 | 0.00 | 0.00 | 0.00 | 70 | 1002.9 |
| 20260506004256 | 21 | 312 | 6.4 | 16.1 | 0.00 | 0.00 | 0.00 | 70 | 1002.8 |
| 20260506003752 | 21 | 331 | 9.7 | 16.1 | 0.00 | 0.00 | 0.00 | 70 | 1003.1 |
| 20260506003249 | 21 | 357 | 6.4 | 12.9 | 0.00 | 0.00 | 0.00 | 69 | 1003.1 |
| 20260506002745 | 21 | 191 | 8.0 | 14.5 | 0.00 | 0.00 | 0.00 | 69 | 1003.1 |
| 20260506002241 | 21 | 310 | 9.7 | 17.7 | 0.00 | 0.00 | 0.00 | 68 | 1002.6 |
| 20260506001736 | 21 | 274 | 4.8 | 16.1 | 0.00 | 0.00 | 0.00 | 69 | 1002.7 |
| 20260506001235 | 21 | 359 | 9.7 | 14.5 | 0.00 | 0.00 | 0.00 | 68 | 1002.9 |
| 20260506000731 | 22 | 7 | 6.4 | 11.3 | 0.00 | 0.00 | 0.00 | 67 | 1002.8 |
| 20260506000229 | 22 | 314 | 9.7 | 14.5 | 0.00 | 0.00 | 0.00 | 67 | 1002.9 |
| 20260505235726 | 22 | 9 | 11.3 | 20.9 | 0.00 | 0.00 | 0.00 | 66 | 1003.1 |
| 20260505235224 | 22 | 358 | 8.0 | 11.3 | 0.00 | 0.00 | 0.00 | 67 | 1002.9 |
| 20260505234720 | 22 | 42 | 8.0 | 14.5 | 0.00 | 0.00 | 0.00 | 66 | 1002.7 |
| 20260505234218 | 22 | 303 | 6.4 | 16.1 | 0.00 | 0.00 | 0.00 | 65 | 1002.8 |
| 20260505233714 | 23 | 316 | 12.9 | 16.1 | 0.00 | 0.00 | 0.00 | 65 | 1002.7 |
| 20260505233212 | 23 | 279 | 6.4 | 11.3 | 0.00 | 0.00 | 0.00 | 65 | 1002.8 |
| 20260505232709 | 23 | 342 | 9.7 | 11.3 | 0.00 | 0.00 | 0.00 | 65 | 1002.6 |
| 20260505232207 | 23 | 3 | 9.7 | 17.7 | 0.00 | 0.00 | 0.00 | 64 | 1002.7 |
| 20260505231703 | 23 | 308 | 8.0 | 11.3 | 0.00 | 0.00 | 0.00 | 63 | 1002.7 |
| 20260505231202 | 23 | 317 | 8.0 | 14.5 | 0.00 | 0.00 | 0.00 | 63 | 1002.6 |
| 20260505230700 | 23 | 252 | 9.7 | 12.9 | 0.00 | 0.00 | 0.00 | 62 | 1002.5 |
| 20260505230156 | 24 | 270 | 3.2 | 20.9 | 0.00 | 0.00 | 0.00 | 61 | 1002.4 |
| 20260505225652 | 24 | 356 | 9.7 | 12.9 | 0.00 | 0.00 | 0.00 | 61 | 1002.5 |
| 20260505225149 | 25 | 356 | 12.9 | 24.1 | 0.00 | 0.00 | 0.00 | 60 | 1002.2 |
| 20260505224645 | 25 | 26 | 14.5 | 17.7 | 0.00 | 0.00 | 0.00 | 60 | 1002.4 |
| 20260505224143 | 25 | 238 | 4.8 | 9.7 | 0.00 | 0.00 | 0.00 | 61 | 1002.3 |
| 20260505223640 | 25 | 311 | 4.8 | 14.5 | 0.00 | 0.00 | 0.00 | 61 | 1002.2 |
| 20260505223136 | 26 | 289 | 4.8 | 11.3 | 0.00 | 0.00 | 0.00 | 61 | 1002.1 |
| 20260505222632 | 26 | 255 | 4.8 | 12.9 | 0.00 | 0.00 | 0.00 | 60 | 1001.8 |
| 20260505222129 | 26 | 271 | 6.4 | 12.9 | 0.00 | 0.00 | 0.00 | 59 | 1002.3 |
| 20260505221626 | 26 | 340 | 6.4 | 14.5 | 0.00 | 0.00 | 0.00 | 60 | 1002.0 |
| 20260505221122 | 26 | 262 | 8.0 | 12.9 | 0.00 | 0.00 | 0.00 | 59 | 1001.8 |
| 20260505220620 | 27 | 242 | 1.6 | 14.5 | 0.00 | 0.00 | 0.00 | 58 | 1001.8 |
| 20260505220117 | 27 | 314 | 3.2 | 11.3 | 0.00 | 0.00 | 0.00 | 59 | 1001.7 |
| 20260505215615 | 27 | 247 | 9.7 | 14.5 | 0.00 | 0.00 | 0.00 | 61 | 1001.7 |
| 20260505215113 | 27 | 287 | 4.8 | 11.3 | 0.00 | 0.00 | 0.00 | 60 | 1001.8 |
| 20260505214611 | 28 | 353 | 8.0 | 14.5 | 0.00 | 0.00 | 0.00 | 58 | 1001.5 |
| 20260505214108 | 28 | 257 | 6.4 | 11.3 | 0.00 | 0.00 | 0.00 | 54 | 1001.6 |
| 20260505213605 | 28 | 261 | 4.8 | 6.4 | 0.00 | 0.00 | 0.00 | 53 | 1001.5 |
| 20260505213101 | 29 | 355 | 9.7 | 14.5 | 0.00 | 0.00 | 0.00 | 49 | 1001.8 |
| 20260505212552 | 30 | 321 | 9.7 | 12.9 | 0.00 | 0.00 | 0.00 | 49 | 1001.9 |
| 20260505212050 | 29 | 241 | 6.4 | 16.1 | 0.00 | 0.00 | 0.00 | 50 | 1001.6 |
| 20260505211547 | 29 | 308 | 8.0 | 17.7 | 0.00 | 0.00 | 0.00 | 48 | 1001.8 |
| 20260505211044 | 29 | 315 | 8.0 | 17.7 | 0.00 | 0.00 | 0.00 | 46 | 1001.7 |
| 20260505210540 | 29 | 285 | 4.8 | 14.5 | 0.00 | 0.00 | 0.00 | 47 | 1001.6 |
| 20260505210037 | 30 | 45 | 12.9 | 16.1 | 0.00 | 0.00 | 0.00 | 45 | 1001.7 |
| 20260505205535 | 29 | 332 | 9.7 | 17.7 | 0.00 | 0.00 | 0.00 | 45 | 1002.2 |
| 20260505205032 | 30 | 9 | 6.4 | 20.9 | 0.00 | 0.00 | 0.00 | 43 | 1002.0 |
| 20260505204530 | 30 | 321 | 4.8 | 14.5 | 0.00 | 0.00 | 0.00 | 45 | 1002.0 |
| 20260505204027 | 30 | 319 | 3.2 | 12.9 | 0.00 | 0.00 | 0.00 | 45 | 1001.9 |
| 20260505203523 | 31 | 306 | 8.0 | 14.5 | 0.00 | 0.00 | 0.00 | 44 | 1001.8 |
| 20260505203021 | 32 | 278 | 11.3 | 24.1 | 0.00 | 0.00 | 0.00 | 41 | 1001.8 |
| 20260505202516 | 35 | 267 | 9.7 | 25.7 | 0.00 | 0.00 | 0.00 | 45 | 1001.5 |
| 20260505202012 | 34 | 236 | 12.9 | 24.1 | 0.00 | 0.00 | 0.00 | 45 | 1001.6 |
| 20260505201510 | 33 | 223 | 4.8 | 11.3 | 0.00 | 0.00 | 0.00 | 48 | 1001.6 |
| 20260505201007 | 34 | 227 | 4.8 | 9.7 | 0.00 | 0.00 | 0.00 | 49 | 1001.7 |
| 20260505200505 | 34 | 176 | 6.4 | 17.7 | 0.00 | 0.00 | 0.00 | 49 | 1001.7 |
| 20260505200000 | 33 | 235 | 8.0 | 11.3 | 0.00 | 0.00 | 0.00 | 53 | 1001.9 |
| 20260505195457 | 33 | 194 | 6.4 | 11.3 | 0.00 | 0.00 | 0.00 | 51 | 1001.9 |
| 20260505194955 | 33 | 207 | 8.0 | 11.3 | 0.00 | 0.00 | 0.00 | 52 | 1001.8 |
| 20260505194452 | 33 | 214 | 9.7 | 14.5 | 0.00 | 0.00 | 0.00 | 50 | 1002.0 |
| 20260505193952 | 33 | 228 | 4.8 | 11.3 | 0.00 | 0.00 | 0.00 | 50 | 1002.2 |
| 20260505193450 | 33 | 200 | 8.0 | 11.3 | 0.00 | 0.00 | 0.00 | 52 | 1001.9 |
| 20260505192947 | 32 | 211 | 6.4 | 9.7 | 0.00 | 0.00 | 0.00 | 52 | 1002.0 |
| 20260505192445 | 32 | 211 | 6.4 | 12.9 | 0.00 | 0.00 | 0.00 | 54 | 1002.1 |
| 20260505191942 | 32 | 186 | 8.0 | 12.9 | 0.00 | 0.00 | 0.00 | 54 | 1002.2 |
| 20260505191441 | 32 | 209 | 9.7 | 17.7 | 0.00 | 0.00 | 0.00 | 53 | 1002.0 |
| 20260505190937 | 32 | 232 | 6.4 | 14.5 | 0.00 | 0.00 | 0.00 | 52 | 1002.0 |
| 20260505190433 | 32 | 200 | 6.4 | 11.3 | 0.00 | 0.00 | 0.00 | 55 | 1001.7 |
| 20260505185928 | 32 | 233 | 4.8 | 11.3 | 0.00 | 0.00 | 0.00 | 56 | 1002.0 |
| 20260505185426 | 31 | 201 | 9.7 | 14.5 | 0.00 | 0.00 | 0.00 | 56 | 1001.8 |
| 20260505184922 | 31 | 195 | 9.7 | 14.5 | 0.00 | 0.00 | 0.00 | 55 | 1001.8 |
| 20260505184419 | 31 | 194 | 9.7 | 11.3 | 0.00 | 0.00 | 0.00 | 58 | 1001.9 |
| 20260505183916 | 31 | 194 | 9.7 | 11.3 | 0.00 | 0.00 | 0.00 | 58 | 1001.9 |
| 20260505183413 | 30 | 230 | 6.4 | 12.9 | 0.00 | 0.00 | 0.00 | 58 | 1001.9 |
| 20260505182909 | 30 | 230 | 6.4 | 12.9 | 0.00 | 0.00 | 0.00 | 58 | 1001.9 |
| 20260505182406 | 30 | 190 | 9.7 | 16.1 | 0.00 | 0.00 | 0.00 | 57 | 1001.8 |
| 20260505181902 | 30 | 235 | 4.8 | 12.9 | 0.00 | 0.00 | 0.00 | 58 | 1002.0 |
| 20260505181400 | 30 | 210 | 8.0 | 12.9 | 0.00 | 0.00 | 0.00 | 58 | 1002.1 |
| 20260505180857 | 30 | 204 | 6.4 | 20.9 | 0.00 | 0.00 | 0.00 | 58 | 1001.8 |
| 20260505180353 | 30 | 193 | 3.2 | 14.5 | 0.00 | 0.00 | 0.00 | 57 | 1002.2 |
| 20260505175850 | 30 | 183 | 6.4 | 12.9 | 0.00 | 0.00 | 0.00 | 59 | 1002.2 |
| 20260505175346 | 30 | 193 | 9.7 | 14.5 | 0.00 | 0.00 | 0.00 | 58 | 1002.1 |
| 20260505174843 | 30 | 194 | 6.4 | 11.3 | 0.00 | 0.00 | 0.00 | 57 | 1002.1 |
| 20260505174340 | 31 | 200 | 12.9 | 14.5 | 0.00 | 0.00 | 0.00 | 56 | 1002.2 |
| 20260505173836 | 30 | 216 | 6.4 | 17.7 | 0.00 | 0.00 | 0.00 | 59 | 1001.8 |
| 20260505173333 | 30 | 238 | 9.7 | 17.7 | 0.00 | 0.00 | 0.00 | 58 | 1002.0 |
| 20260505172830 | 30 | 212 | 9.7 | 16.1 | 0.00 | 0.00 | 0.00 | 57 | 1001.9 |
| 20260505172328 | 30 | 214 | 8.0 | 20.9 | 0.00 | 0.00 | 0.00 | 57 | 1002.1 |
| 20260505171822 | 30 | 194 | 6.4 | 20.9 | 0.00 | 0.00 | 0.00 | 56 | 1002.1 |
| 20260505171319 | 31 | 183 | 6.4 | 14.5 | 0.00 | 0.00 | 0.00 | 57 | 1001.8 |
| 20260505170815 | 30 | 207 | 1.6 | 9.7 | 0.00 | 0.00 | 0.00 | 60 | 1001.8 |
| 20260505170313 | 30 | 221 | 4.8 | 14.5 | 0.00 | 0.00 | 0.00 | 60 | 1002.0 |
| 20260505165808 | 30 | 202 | 4.8 | 9.7 | 0.00 | 0.00 | 0.00 | 61 | 1002.0 |
| 20260505165306 | 30 | 195 | 6.4 | 9.7 | 0.00 | 0.00 | 0.00 | 60 | 1001.9 |
| 20260505164759 | 30 | 189 | 3.2 | 11.3 | 0.00 | 0.00 | 0.00 | 62 | 1002.2 |
| 20260505164257 | 29 | 208 | 4.8 | 11.3 | 0.00 | 0.00 | 0.00 | 63 | 1002.1 |
| 20260505163755 | 28 | 201 | 8.0 | 12.9 | 0.00 | 0.00 | 0.00 | 65 | 1002.1 |
| 20260505163253 | 28 | 207 | 6.4 | 6.4 | 0.00 | 0.00 | 0.00 | 65 | 1001.9 |
| 20260505162750 | 27 | 203 | 6.4 | 11.3 | 0.00 | 0.00 | 0.00 | 68 | 1002.1 |
| 20260505162247 | 27 | 209 | 4.8 | 17.7 | 0.00 | 0.00 | 0.00 | 67 | 1002.1 |
| 20260505161744 | 27 | 215 | 4.8 | 11.3 | 0.00 | 0.00 | 0.00 | 67 | 1002.2 |
| 20260505161242 | 27 | 194 | 4.8 | 11.3 | 0.00 | 0.00 | 0.00 | 68 | 1001.9 |
| 20260505160739 | 27 | 200 | 4.8 | 9.7 | 0.00 | 0.00 | 0.00 | 66 | 1002.0 |
| 20260505160237 | 27 | 229 | 3.2 | 6.4 | 0.00 | 0.00 | 0.00 | 66 | 1001.8 |
| 20260505153216 | 25 | 200 | 6.4 | 11.3 | 0.00 | 0.00 | 0.00 | 73 | 1001.9 |
| 20260505152713 | 25 | 187 | 6.4 | 12.9 | 0.00 | 0.00 | 0.00 | 74 | 1001.7 |
| 20260505152208 | 25 | 210 | 4.8 | 9.7 | 0.00 | 0.00 | 0.00 | 75 | 1001.7 |
| 20260505151703 | 24 | 194 | 8.0 | 11.3 | 0.00 | 0.00 | 0.00 | 75 | 1001.5 |
| 20260505151201 | 24 | 200 | 6.4 | 12.9 | 0.00 | 0.00 | 0.00 | 75 | 1001.5 |
| 20260505150656 | 24 | 182 | 8.0 | 11.3 | 0.00 | 0.00 | 0.00 | 75 | 1001.8 |
| 20260505150154 | 24 | 203 | 8.0 | 16.1 | 0.00 | 0.00 | 0.00 | 75 | 1001.6 |
| 20260505140623 | 23 | 203 | 8.0 | 11.3 | 0.00 | 0.00 | 0.00 | 77 | 1001.4 |
| 20260505140120 | 23 | 201 | 4.8 | 11.3 | 0.00 | 0.00 | 0.00 | 77 | 1001.6 |
| 20260505125036 | 21 | 213 | 4.8 | 11.3 | 0.00 | 0.00 | 0.00 | 83 | 1001.0 |
| 20260505124533 | 21 | 225 | 3.2 | 11.3 | 0.00 | 0.00 | 0.00 | 83 | 1000.8 |
| 20260505124029 | 21 | 199 | 8.0 | 16.1 | 0.00 | 0.00 | 0.00 | 83 | 1000.9 |
| 20260505123526 | 21 | 215 | 3.2 | 11.3 | 0.00 | 0.00 | 0.00 | 83 | 1001.0 |
| 20260505123022 | 21 | 204 | 4.8 | 6.4 | 0.00 | 0.00 | 0.00 | 84 | 1000.7 |
| 20260505122519 | 21 | 200 | 8.0 | 11.3 | 0.00 | 0.00 | 0.00 | 83 | 1000.6 |
| 20260505122016 | 21 | 206 | 3.2 | 11.3 | 0.00 | 0.00 | 0.00 | 83 | 1000.6 |
| 20260505121512 | 21 | 198 | 3.2 | 4.8 | 0.00 | 0.00 | 0.00 | 84 | 1000.6 |
| 20260505121009 | 20 | 215 | 6.4 | 12.9 | 0.00 | 0.00 | 0.00 | 84 | 1000.5 |
| 20260505120506 | 20 | 219 | 4.8 | 11.3 | 0.00 | 0.00 | 0.00 | 84 | 1000.4 |
| 20260505120006 | 20 | 235 | 4.8 | 9.7 | 0.00 | 0.00 | 0.00 | 84 | 1000.5 |
| 20260505115501 | 20 | 190 | 4.8 | 12.9 | 0.00 | 0.00 | 0.00 | 84 | 1000.5 |
| 20260505114959 | 20 | 215 | 6.4 | 14.5 | 0.00 | 0.00 | 0.00 | 84 | 1000.5 |
| 20260505114455 | 20 | 228 | 4.8 | 6.4 | 0.00 | 0.00 | 0.00 | 84 | 1000.5 |
| 20260505113952 | 20 | 177 | 4.8 | 11.3 | 0.00 | 0.00 | 0.00 | 83 | 1000.4 |
| 20260505113448 | 20 | 208 | 6.4 | 11.3 | 0.00 | 0.00 | 0.00 | 83 | 1000.4 |
| 20260505112943 | 20 | 191 | 4.8 | 6.4 | 0.00 | 0.00 | 0.00 | 83 | 1000.4 |
| 20260505112441 | 20 | 204 | 6.4 | 14.5 | 0.00 | 0.00 | 0.00 | 83 | 1000.2 |
| 20260505111937 | 21 | 203 | 3.2 | 9.7 | 0.00 | 0.00 | 0.00 | 83 | 1000.4 |
| 20260505111432 | 21 | 224 | 3.2 | 16.1 | 0.00 | 0.00 | 0.00 | 83 | 1000.0 |
| 20260505110929 | 20 | 190 | 9.7 | 20.9 | 0.00 | 0.00 | 0.00 | 83 | 1000.2 |
| 20260505110425 | 20 | 228 | 3.2 | 11.3 | 0.00 | 0.00 | 0.00 | 83 | 1000.3 |
| 20260505101856 | 21 | 175 | 4.8 | 6.4 | 0.00 | 0.00 | 0.00 | 82 | 1000.3 |
| 20260505101351 | 21 | 175 | 4.8 | 6.4 | 0.00 | 0.00 | 0.00 | 82 | 1000.3 |
| 20260505100847 | 21 | 215 | 3.2 | 9.7 | 0.00 | 0.00 | 0.00 | 82 | 1000.4 |
| 20260505100344 | 21 | 185 | 6.4 | 11.3 | 0.00 | 0.00 | 0.00 | 82 | 1000.5 |
| 20260505095839 | 21 | 222 | 6.4 | 9.7 | 0.00 | 0.00 | 0.00 | 82 | 1000.2 |
| 20260505095337 | 21 | 211 | 3.2 | 11.3 | 0.00 | 0.00 | 0.00 | 82 | 1000.2 |
| 20260505094833 | 21 | 204 | 4.8 | 11.3 | 0.00 | 0.00 | 0.00 | 82 | 1000.3 |
| 20260505094330 | 21 | 249 | 3.2 | 9.7 | 0.00 | 0.00 | 0.00 | 82 | 1000.3 |
| 20260505093825 | 21 | 179 | 3.2 | 6.4 | 0.00 | 0.00 | 0.00 | 82 | 1000.4 |
| 20260505093324 | 21 | 213 | 3.2 | 9.7 | 0.00 | 0.00 | 0.00 | 81 | 1000.5 |
| 20260505092820 | 21 | 178 | 6.4 | 6.4 | 0.00 | 0.00 | 0.00 | 81 | 1000.4 |
| 20260505092319 | 21 | 184 | 3.2 | 6.4 | 0.00 | 0.00 | 0.00 | 81 | 1000.5 |
| 20260505091815 | 21 | 196 | 3.2 | 6.4 | 0.00 | 0.00 | 0.00 | 80 | 1000.4 |
| 20260505091314 | 21 | 192 | 4.8 | 6.4 | 0.00 | 0.00 | 0.00 | 80 | 1000.5 |
| 20260505090811 | 21 | 189 | 3.2 | 11.3 | 0.00 | 0.00 | 0.00 | 80 | 1000.4 |
| 20260505090309 | 21 | 218 | 3.2 | 6.4 | 0.00 | 0.00 | 0.00 | 79 | 1000.6 |
| 20260505085806 | 21 | 208 | 4.8 | 11.3 | 0.00 | 0.00 | 0.00 | 79 | 1000.4 |
| 20260505085305 | 21 | 188 | 4.8 | 6.4 | 0.00 | 0.00 | 0.00 | 79 | 1000.5 |
| 20260505084801 | 21 | 206 | 3.2 | 12.9 | 0.00 | 0.00 | 0.00 | 79 | 1000.8 |
| 20260505084300 | 21 | 203 | 1.6 | 6.4 | 0.00 | 0.00 | 0.00 | 79 | 1000.7 |
| 20260505083757 | 21 | 232 | 3.2 | 12.9 | 0.00 | 0.00 | 0.00 | 79 | 1000.7 |
| 20260505083253 | 21 | 209 | 3.2 | 9.7 | 0.00 | 0.00 | 0.00 | 79 | 1000.8 |
| 20260505082750 | 21 | 195 | 3.2 | 11.3 | 0.00 | 0.00 | 0.00 | 78 | 1000.7 |
| 20260505082247 | 21 | 196 | 6.4 | 12.9 | 0.00 | 0.00 | 0.00 | 78 | 1000.7 |
| 20260505081743 | 21 | 188 | 3.2 | 11.3 | 0.00 | 0.00 | 0.00 | 78 | 1001.1 |
| 20260505081240 | 21 | 192 | 3.2 | 6.4 | 0.00 | 0.00 | 0.00 | 78 | 1001.0 |